Вернуться в каталог

STARLINK-32271

АктивенСвязьVLEO
NORAD 60368·PAYLOAD·🇺🇸 United States

Запущен Aug 4, 2024 с Vandenberg Space Force Base

Loading…

Ближайшие Пролёты (ближайшие 24 часа)

TLE

СвежийSource: CelesTrak SupGP

Эпоха: Sep 14, 2026, 22:28 UTC

1 60368C 24138P   26257.93659722 -.00055441  00000+0 -16380-2 0  2573
2 60368  53.1572 149.7980 0001295 103.3555 237.7169 15.34417970    12

Отслеживайте STARLINK-32271 в реальном времени с AllMySat

Download on the App Store